Time,TemperatureF,DewpointF,PressureIn,WindDirection,WindDirectionDegrees,WindSpeedMPH,WindSpeedGustMPH,Humidity,HourlyPrecipIn,Conditions,Clouds,dailyrainin,SoftwareType,DateUTC
2014-01-25 00:03:00,26.6,19.1,30.42,SW,218,0.0,2.0,73,0.00,,,0.01,Wunderground v.1.15,2014-01-25 06:03:00,
2014-01-25 00:09:00,26.5,19.0,30.42,SSE,148,1.0,2.0,73,0.00,,,0.01,Wunderground v.1.15,2014-01-25 06:09:00,
2014-01-25 00:14:00,26.6,19.4,30.41,SSE,149,0.0,3.0,74,0.00,,,0.01,Wunderground v.1.15,2014-01-25 06:14:00,
2014-01-25 00:20:00,26.6,19.4,30.41,East,86,1.0,2.0,74,0.00,,,0.01,Wunderground v.1.15,2014-01-25 06:20:00,
2014-01-25 00:25:00,26.6,19.4,30.40,NNE,30,1.0,5.0,74,0.00,,,0.01,Wunderground v.1.15,2014-01-25 06:25:00,
2014-01-25 00:30:00,26.7,19.5,30.40,ESE,122,1.0,2.0,74,0.00,,,0.01,Wunderground v.1.15,2014-01-25 06:30:00,
2014-01-25 00:35:00,26.7,19.8,30.40,ESE,112,1.0,2.0,75,0.00,,,0.01,Wunderground v.1.15,2014-01-25 06:35:00,
2014-01-25 00:40:00,26.8,19.9,30.39,SSW,204,1.0,2.0,75,0.00,,,0.01,Wunderground v.1.15,2014-01-25 06:40:00,
2014-01-25 00:45:00,26.9,20.0,30.39,SSE,158,2.0,4.0,75,0.00,,,0.01,Wunderground v.1.15,2014-01-25 06:45:00,
2014-01-25 00:50:00,26.9,20.0,30.38,SSE,167,2.0,2.0,75,0.00,,,0.01,Wunderground v.1.15,2014-01-25 06:50:00,
2014-01-25 00:56:00,26.9,20.0,30.38,SSW,200,2.0,2.0,75,0.00,,,0.01,Wunderground v.1.15,2014-01-25 06:56:00,
2014-01-25 01:01:00,26.9,20.0,30.38,WSW,248,0.0,2.0,75,0.00,,,0.01,Wunderground v.1.15,2014-01-25 07:01:00,
2014-01-25 01:07:00,26.8,20.2,30.38,West,269,0.0,4.0,76,0.00,,,0.01,Wunderground v.1.15,2014-01-25 07:07:00,
2014-01-25 01:12:00,26.8,20.2,30.38,West,259,2.0,2.0,76,0.00,,,0.01,Wunderground v.1.15,2014-01-25 07:12:00,
2014-01-25 01:17:00,26.8,20.6,30.37,SW,232,2.0,2.0,77,0.00,,,0.01,Wunderground v.1.15,2014-01-25 07:17:00,
2014-01-25 01:23:00,26.9,20.7,30.37,NE,36,0.0,3.0,77,0.00,,,0.01,Wunderground v.1.15,2014-01-25 07:23:00,
2014-01-25 01:29:00,26.9,20.7,30.37,ESE,113,2.0,3.0,77,0.00,,,0.01,Wunderground v.1.15,2014-01-25 07:29:00,
2014-01-25 01:34:00,26.9,20.7,30.36,SW,215,1.0,3.0,77,0.00,,,0.01,Wunderground v.1.15,2014-01-25 07:34:00,
2014-01-25 01:39:00,26.8,20.9,30.36,WSW,250,2.0,4.0,78,0.00,,,0.01,Wunderground v.1.15,2014-01-25 07:39:00,
2014-01-25 01:45:00,26.8,20.9,30.36,SSW,201,3.0,4.0,78,0.00,,,0.01,Wunderground v.1.15,2014-01-25 07:45:00,
2014-01-25 01:51:00,26.8,20.9,30.35,SE,145,1.0,2.0,78,0.00,,,0.01,Wunderground v.1.15,2014-01-25 07:51:00,
2014-01-25 01:57:00,26.8,20.9,30.35,SW,229,4.0,4.0,78,0.00,,,0.01,Wunderground v.1.15,2014-01-25 07:57:00,
2014-01-25 02:02:00,26.8,21.2,30.35,SW,225,3.0,3.0,79,0.00,,,0.01,Wunderground v.1.15,2014-01-25 08:02:00,
2014-01-25 02:07:00,26.9,21.3,30.34,WSW,250,2.0,6.0,79,0.00,,,0.01,Wunderground v.1.15,2014-01-25 08:07:00,
2014-01-25 02:12:00,27.0,21.4,30.34,WNW,284,1.0,4.0,79,0.00,,,0.01,Wunderground v.1.15,2014-01-25 08:12:00,
2014-01-25 02:17:00,27.0,21.4,30.34,SW,215,1.0,5.0,79,0.00,,,0.01,Wunderground v.1.15,2014-01-25 08:17:00,
2014-01-25 02:22:00,27.1,21.5,30.34,SW,226,1.0,6.0,79,0.00,,,0.01,Wunderground v.1.15,2014-01-25 08:22:00,
2014-01-25 02:27:00,27.3,21.6,30.33,South,191,3.0,8.0,79,0.00,,,0.01,Wunderground v.1.15,2014-01-25 08:27:00,
2014-01-25 02:32:00,27.5,21.5,30.33,SSE,162,2.0,3.0,78,0.00,,,0.01,Wunderground v.1.15,2014-01-25 08:32:00,
2014-01-25 02:37:00,27.6,21.6,30.33,SE,143,2.0,5.0,78,0.00,,,0.01,Wunderground v.1.15,2014-01-25 08:37:00,
2014-01-25 02:42:00,27.7,21.7,30.33,SW,226,2.0,5.0,78,0.00,,,0.01,Wunderground v.1.15,2014-01-25 08:42:00,
2014-01-25 02:47:00,27.8,21.8,30.32,SSW,207,1.0,6.0,78,0.00,,,0.01,Wunderground v.1.15,2014-01-25 08:47:00,
2014-01-25 02:53:00,27.7,21.7,30.33,SSW,201,3.0,5.0,78,0.00,,,0.01,Wunderground v.1.15,2014-01-25 08:53:00,
2014-01-25 02:58:00,27.7,21.7,30.33,WSW,238,1.0,5.0,78,0.00,,,0.01,Wunderground v.1.15,2014-01-25 08:58:00,
2014-01-25 03:03:00,27.7,21.7,30.32,WSW,250,1.0,4.0,78,0.00,,,0.01,Wunderground v.1.15,2014-01-25 09:03:00,
2014-01-25 03:08:00,27.7,21.7,30.32,ESE,111,2.0,4.0,78,0.00,,,0.01,Wunderground v.1.15,2014-01-25 09:08:00,
2014-01-25 03:13:00,27.7,21.7,30.32,WSW,246,1.0,4.0,78,0.00,,,0.01,Wunderground v.1.15,2014-01-25 09:13:00,
2014-01-25 03:18:00,27.6,21.6,30.32,SSE,160,0.0,4.0,78,0.00,,,0.01,Wunderground v.1.15,2014-01-25 09:18:00,
2014-01-25 03:22:00,27.6,21.9,30.32,SW,232,1.0,5.0,79,0.00,,,0.01,Wunderground v.1.15,2014-01-25 09:22:00,
2014-01-25 03:28:00,27.5,21.8,30.32,ESE,109,2.0,5.0,79,0.00,,,0.01,Wunderground v.1.15,2014-01-25 09:28:00,
2014-01-25 03:33:00,27.7,22.0,30.32,WNW,284,2.0,6.0,79,0.00,,,0.01,Wunderground v.1.15,2014-01-25 09:33:00,
2014-01-25 03:38:00,27.7,22.0,30.32,ESE,122,6.0,6.0,79,0.00,,,0.01,Wunderground v.1.15,2014-01-25 09:38:00,
2014-01-25 03:43:00,28.0,22.3,30.31,ESE,115,2.0,6.0,79,0.00,,,0.01,Wunderground v.1.15,2014-01-25 09:43:00,
2014-01-25 03:48:00,28.1,22.4,30.31,SSW,210,2.0,6.0,79,0.00,,,0.01,Wunderground v.1.15,2014-01-25 09:48:00,
2014-01-25 03:53:00,28.1,22.4,30.30,SSE,167,1.0,5.0,79,0.00,,,0.01,Wunderground v.1.15,2014-01-25 09:53:00,
2014-01-25 03:58:00,28.2,22.5,30.30,SW,215,0.0,6.0,79,0.00,,,0.01,Wunderground v.1.15,2014-01-25 09:58:00,
2014-01-25 04:03:00,28.2,22.5,30.30,South,177,1.0,4.0,79,0.00,,,0.01,Wunderground v.1.15,2014-01-25 10:03:00,
2014-01-25 04:08:00,28.2,22.5,30.30,WSW,243,2.0,4.0,79,0.00,,,0.01,Wunderground v.1.15,2014-01-25 10:08:00,
2014-01-25 04:13:00,28.2,22.5,30.29,SW,215,1.0,5.0,79,0.00,,,0.01,Wunderground v.1.15,2014-01-25 10:13:00,
2014-01-25 04:18:00,28.2,22.5,30.30,SSW,210,4.0,7.0,79,0.00,,,0.01,Wunderground v.1.15,2014-01-25 10:18:00,
2014-01-25 04:23:00,28.2,22.5,30.30,SSE,148,4.0,7.0,79,0.00,,,0.01,Wunderground v.1.15,2014-01-25 10:23:00,
2014-01-25 04:28:00,28.3,22.6,30.29,West,259,1.0,7.0,79,0.00,,,0.01,Wunderground v.1.15,2014-01-25 10:28:00,
2014-01-25 04:33:00,28.3,22.6,30.29,ESE,117,3.0,6.0,79,0.00,,,0.01,Wunderground v.1.15,2014-01-25 10:33:00,
2014-01-25 04:38:00,28.3,22.9,30.29,WSW,255,1.0,7.0,80,0.00,,,0.01,Wunderground v.1.15,2014-01-25 10:38:00,
2014-01-25 04:43:00,28.3,22.9,30.28,SE,134,1.0,3.0,80,0.00,,,0.01,Wunderground v.1.15,2014-01-25 10:43:00,
2014-01-25 04:48:00,28.3,22.9,30.28,SSW,204,2.0,6.0,80,0.00,,,0.01,Wunderground v.1.15,2014-01-25 10:48:00,
2014-01-25 04:53:00,28.3,22.9,30.28,South,173,2.0,5.0,80,0.00,,,0.01,Wunderground v.1.15,2014-01-25 10:53:00,
2014-01-25 04:58:00,28.3,22.9,30.28,ENE,60,2.0,5.0,80,0.00,,,0.01,Wunderground v.1.15,2014-01-25 10:58:00,
2014-01-25 05:03:00,28.3,22.9,30.27,SSW,210,4.0,6.0,80,0.00,,,0.01,Wunderground v.1.15,2014-01-25 11:03:00,
2014-01-25 05:08:00,28.3,22.9,30.27,West,266,1.0,6.0,80,0.00,,,0.01,Wunderground v.1.15,2014-01-25 11:08:00,
2014-01-25 05:13:00,28.2,22.8,30.27,WNW,284,1.0,7.0,80,0.00,,,0.01,Wunderground v.1.15,2014-01-25 11:13:00,
2014-01-25 05:18:00,28.2,22.8,30.27,WSW,253,3.0,7.0,80,0.00,,,0.01,Wunderground v.1.15,2014-01-25 11:18:00,
2014-01-25 05:23:00,28.2,22.8,30.27,SSE,152,1.0,6.0,80,0.00,,,0.01,Wunderground v.1.15,2014-01-25 11:23:00,
2014-01-25 05:28:00,28.1,23.0,30.27,SW,215,1.0,6.0,81,0.00,,,0.01,Wunderground v.1.15,2014-01-25 11:28:00,
2014-01-25 05:34:00,28.0,22.9,30.27,East,94,1.0,5.0,81,0.00,,,0.01,Wunderground v.1.15,2014-01-25 11:34:00,
2014-01-25 05:39:00,27.9,22.8,30.27,SE,141,4.0,5.0,81,0.00,,,0.01,Wunderground v.1.15,2014-01-25 11:39:00,
2014-01-25 05:44:00,27.9,22.8,30.26,SW,227,4.0,5.0,81,0.00,,,0.01,Wunderground v.1.15,2014-01-25 11:44:00,
2014-01-25 05:49:00,27.8,22.7,30.27,West,274,1.0,5.0,81,0.00,,,0.01,Wunderground v.1.15,2014-01-25 11:49:00,
2014-01-25 05:54:00,27.8,22.7,30.27,SSW,197,3.0,6.0,81,0.00,,,0.01,Wunderground v.1.15,2014-01-25 11:54:00,
2014-01-25 05:59:00,27.7,22.9,30.27,SSW,198,2.0,6.0,82,0.00,,,0.01,Wunderground v.1.15,2014-01-25 11:59:00,
2014-01-25 06:04:00,27.6,22.8,30.27,SSE,167,1.0,3.0,82,0.00,,,0.01,Wunderground v.1.15,2014-01-25 12:04:00,
2014-01-25 06:09:00,27.6,22.8,30.27,SE,143,1.0,4.0,82,0.00,,,0.01,Wunderground v.1.15,2014-01-25 12:09:00,
2014-01-25 06:14:00,27.6,22.8,30.27,SSE,147,2.0,4.0,82,0.00,,,0.01,Wunderground v.1.15,2014-01-25 12:14:00,
2014-01-25 06:19:00,27.6,22.8,30.27,SSE,152,1.0,4.0,82,0.00,,,0.01,Wunderground v.1.15,2014-01-25 12:19:00,
2014-01-25 06:24:00,27.6,22.8,30.27,West,281,1.0,3.0,82,0.00,,,0.01,Wunderground v.1.15,2014-01-25 12:24:00,
2014-01-25 06:29:00,27.5,23.0,30.28,WSW,255,0.0,3.0,83,0.00,,,0.01,Wunderground v.1.15,2014-01-25 12:29:00,
2014-01-25 06:34:00,27.5,23.0,30.27,SE,140,1.0,4.0,83,0.00,,,0.01,Wunderground v.1.15,2014-01-25 12:34:00,
2014-01-25 06:39:00,27.5,23.0,30.27,SSE,157,1.0,4.0,83,0.00,,,0.01,Wunderground v.1.15,2014-01-25 12:39:00,
2014-01-25 06:44:00,27.5,23.0,30.28,SSE,163,3.0,5.0,83,0.00,,,0.01,Wunderground v.1.15,2014-01-25 12:44:00,
2014-01-25 06:49:00,27.5,23.0,30.27,ESE,118,1.0,5.0,83,0.00,,,0.01,Wunderground v.1.15,2014-01-25 12:49:00,
2014-01-25 06:54:00,27.5,23.0,30.27,ENE,67,0.0,3.0,83,0.00,,,0.01,Wunderground v.1.15,2014-01-25 12:54:00,
2014-01-25 06:59:00,27.5,23.3,30.27,SE,133,1.0,3.0,84,0.00,,,0.01,Wunderground v.1.15,2014-01-25 12:59:00,
2014-01-25 07:04:00,27.5,23.3,30.27,West,266,2.0,4.0,84,0.00,,,0.01,Wunderground v.1.15,2014-01-25 13:04:00,
2014-01-25 07:09:00,27.5,23.3,30.27,South,186,3.0,4.0,84,0.00,,,0.01,Wunderground v.1.15,2014-01-25 13:09:00,
2014-01-25 07:14:00,27.5,23.3,30.27,SE,139,0.0,3.0,84,0.00,,,0.01,Wunderground v.1.15,2014-01-25 13:14:00,
2014-01-25 07:19:00,27.5,23.3,30.27,WNW,290,0.0,4.0,84,0.00,,,0.01,Wunderground v.1.15,2014-01-25 13:19:00,
2014-01-25 07:24:00,27.5,23.3,30.27,SSW,201,1.0,3.0,84,0.00,,,0.01,Wunderground v.1.15,2014-01-25 13:24:00,
2014-01-25 07:29:00,27.5,23.3,30.28,ESE,117,1.0,5.0,84,0.00,,,0.01,Wunderground v.1.15,2014-01-25 13:29:00,
2014-01-25 07:34:00,27.6,23.4,30.28,SSE,157,1.0,4.0,84,0.00,,,0.01,Wunderground v.1.15,2014-01-25 13:34:00,
2014-01-25 07:39:00,27.9,23.7,30.27,South,169,4.0,4.0,84,0.00,,,0.01,Wunderground v.1.15,2014-01-25 13:39:00,
2014-01-25 07:44:00,28.5,24.3,30.27,SE,128,0.0,3.0,84,0.00,,,0.01,Wunderground v.1.15,2014-01-25 13:44:00,
2014-01-25 07:49:00,29.2,24.7,30.27,South,181,2.0,3.0,83,0.00,,,0.01,Wunderground v.1.15,2014-01-25 13:49:00,
2014-01-25 07:54:00,29.8,25.0,30.27,ESE,103,2.0,3.0,82,0.00,,,0.01,Wunderground v.1.15,2014-01-25 13:54:00,
2014-01-25 07:59:00,30.3,25.2,30.27,ESE,117,1.0,3.0,81,0.00,,,0.01,Wunderground v.1.15,2014-01-25 13:59:00,
2014-01-25 08:04:00,31.0,25.6,30.27,SW,232,3.0,4.0,80,0.00,,,0.01,Wunderground v.1.15,2014-01-25 14:04:00,
2014-01-25 08:09:00,31.5,25.7,30.27,SE,125,1.0,4.0,79,0.00,,,0.01,Wunderground v.1.15,2014-01-25 14:09:00,
2014-01-25 08:14:00,32.2,26.1,30.27,South,186,0.0,4.0,78,0.00,,,0.01,Wunderground v.1.15,2014-01-25 14:14:00,
2014-01-25 08:19:00,33.0,26.6,30.27,SSE,153,1.0,4.0,77,0.00,,,0.01,Wunderground v.1.15,2014-01-25 14:19:00,
2014-01-25 08:24:00,33.6,26.5,30.27,SSE,159,1.0,5.0,75,0.00,,,0.01,Wunderground v.1.15,2014-01-25 14:24:00,
2014-01-25 08:29:00,34.1,26.7,30.27,ESE,114,2.0,5.0,74,0.00,,,0.01,Wunderground v.1.15,2014-01-25 14:29:00,
2014-01-25 08:34:00,34.4,27.0,30.27,SW,226,2.0,5.0,74,0.00,,,0.01,Wunderground v.1.15,2014-01-25 14:34:00,
2014-01-25 08:39:00,34.7,26.9,30.27,SSE,153,4.0,7.0,73,0.00,,,0.01,Wunderground v.1.15,2014-01-25 14:39:00,
2014-01-25 08:44:00,34.9,26.8,30.26,SE,146,2.0,4.0,72,0.00,,,0.01,Wunderground v.1.15,2014-01-25 14:44:00,
2014-01-25 08:49:00,35.3,27.2,30.27,SW,218,2.0,5.0,72,0.00,,,0.01,Wunderground v.1.15,2014-01-25 14:49:00,
2014-01-25 08:54:00,35.7,27.2,30.27,East,94,2.0,7.0,71,0.00,,,0.01,Wunderground v.1.15,2014-01-25 14:54:00,
2014-01-25 08:59:00,36.1,27.3,30.27,SW,235,3.0,7.0,70,0.00,,,0.01,Wunderground v.1.15,2014-01-25 14:59:00,
2014-01-25 09:04:00,36.5,27.3,30.27,West,281,1.0,6.0,69,0.00,,,0.01,Wunderground v.1.15,2014-01-25 15:04:00,
2014-01-25 09:10:00,37.4,28.2,30.27,SE,125,3.0,3.0,69,0.00,,,0.01,Wunderground v.1.15,2014-01-25 15:10:00,
2014-01-25 09:15:00,37.8,27.5,30.27,WSW,248,2.0,6.0,66,0.00,,,0.01,Wunderground v.1.15,2014-01-25 15:15:00,
2014-01-25 09:20:00,38.1,27.7,30.27,SW,222,6.0,6.0,66,0.00,,,0.01,Wunderground v.1.15,2014-01-25 15:20:00,
2014-01-25 09:25:00,38.6,28.2,30.27,SW,235,3.0,6.0,66,0.00,,,0.01,Wunderground v.1.15,2014-01-25 15:25:00,
2014-01-25 09:30:00,39.2,28.4,30.27,WSW,248,0.0,3.0,65,0.00,,,0.01,Wunderground v.1.15,2014-01-25 15:30:00,
2014-01-25 09:35:00,40.1,28.9,30.27,SE,140,2.0,5.0,64,0.00,,,0.01,Wunderground v.1.15,2014-01-25 15:35:00,
2014-01-25 09:40:00,40.8,28.8,30.27,WSW,238,6.0,6.0,62,0.00,,,0.01,Wunderground v.1.15,2014-01-25 15:40:00,
2014-01-25 09:45:00,40.9,28.5,30.27,SE,139,2.0,6.0,61,0.00,,,0.01,Wunderground v.1.15,2014-01-25 15:45:00,
2014-01-25 09:50:00,41.2,28.4,30.27,WSW,242,1.0,3.0,60,0.00,,,0.01,Wunderground v.1.15,2014-01-25 15:50:00,
2014-01-25 09:55:00,41.6,28.7,30.27,SE,133,4.0,6.0,60,0.00,,,0.01,Wunderground v.1.15,2014-01-25 15:55:00,
2014-01-25 10:00:00,41.9,28.6,30.26,SSW,210,3.0,4.0,59,0.00,,,0.01,Wunderground v.1.15,2014-01-25 16:00:00,
2014-01-25 10:05:00,42.5,29.2,30.26,NW,304,0.0,9.0,59,0.00,,,0.01,Wunderground v.1.15,2014-01-25 16:05:00,
2014-01-25 10:10:00,43.2,29.0,30.26,WSW,238,4.0,5.0,57,0.00,,,0.01,Wunderground v.1.15,2014-01-25 16:10:00,
2014-01-25 10:15:00,43.6,29.4,30.26,South,170,1.0,7.0,57,0.00,,,0.01,Wunderground v.1.15,2014-01-25 16:15:00,
2014-01-25 10:20:00,44.1,29.8,30.26,WNW,294,6.0,9.0,57,0.00,,,0.00,Wunderground v.1.15,2014-01-25 16:20:00,
2014-01-25 10:25:00,44.6,29.9,30.26,ESE,123,2.0,9.0,56,0.00,,,0.00,Wunderground v.1.15,2014-01-25 16:25:00,
2014-01-25 10:30:00,45.2,30.0,30.26,SE,140,4.0,7.0,55,0.00,,,0.00,Wunderground v.1.15,2014-01-25 16:30:00,
2014-01-25 10:35:00,45.9,30.6,30.26,West,268,3.0,7.0,55,0.00,,,0.00,Wunderground v.1.15,2014-01-25 16:35:00,
2014-01-25 10:40:00,46.7,30.0,30.26,SW,218,5.0,6.0,52,0.00,,,0.00,Wunderground v.1.15,2014-01-25 16:40:00,
2014-01-25 10:46:00,47.0,30.3,30.27,WNW,300,2.0,6.0,52,0.00,,,0.00,Wunderground v.1.15,2014-01-25 16:46:00,
2014-01-25 10:51:00,47.7,30.9,30.27,SE,128,2.0,3.0,52,0.00,,,0.00,Wunderground v.1.15,2014-01-25 16:51:00,
2014-01-25 10:56:00,48.3,30.0,30.26,SSW,204,1.0,5.0,49,0.00,,,0.00,Wunderground v.1.15,2014-01-25 16:56:00,
2014-01-25 11:01:00,48.7,30.4,30.26,West,269,4.0,4.0,49,0.00,,,0.00,Wunderground v.1.15,2014-01-25 17:01:00,
2014-01-25 11:06:00,49.1,30.7,30.26,West,274,2.0,5.0,49,0.00,,,0.00,Wunderground v.1.15,2014-01-25 17:06:00,
2014-01-25 11:11:00,49.6,29.6,30.26,South,186,2.0,5.0,46,0.00,,,0.00,Wunderground v.1.15,2014-01-25 17:11:00,
2014-01-25 11:16:00,50.3,29.7,30.26,WSW,240,3.0,5.0,45,0.00,,,0.00,Wunderground v.1.15,2014-01-25 17:16:00,
2014-01-25 11:21:00,50.9,29.7,30.26,SSW,212,2.0,5.0,44,0.00,,,0.00,Wunderground v.1.15,2014-01-25 17:21:00,
2014-01-25 11:26:00,51.7,30.5,30.25,SW,229,2.0,5.0,44,0.00,,,0.00,Wunderground v.1.15,2014-01-25 17:26:00,
2014-01-25 11:31:00,52.3,31.6,30.25,West,281,2.0,4.0,45,0.00,,,0.00,Wunderground v.1.15,2014-01-25 17:31:00,
2014-01-25 11:36:00,52.9,30.4,30.25,West,280,1.0,4.0,42,0.00,,,0.00,Wunderground v.1.15,2014-01-25 17:36:00,
2014-01-25 11:41:00,53.0,29.9,30.25,WNW,300,3.0,3.0,41,0.00,,,0.00,Wunderground v.1.15,2014-01-25 17:41:00,
2014-01-25 11:46:00,53.1,29.4,30.24,SE,132,0.0,7.0,40,0.00,,,0.00,Wunderground v.1.15,2014-01-25 17:46:00,
2014-01-25 11:51:00,53.6,29.8,30.24,West,269,3.0,7.0,40,0.00,,,0.00,Wunderground v.1.15,2014-01-25 17:51:00,
2014-01-25 11:56:00,53.9,30.7,30.23,SSE,153,3.0,7.0,41,0.00,,,0.00,Wunderground v.1.15,2014-01-25 17:56:00,
2014-01-25 12:01:00,54.6,30.7,30.23,SSW,198,4.0,4.0,40,0.00,,,0.00,Wunderground v.1.15,2014-01-25 18:01:00,
2014-01-25 12:06:00,55.0,31.7,30.23,West,278,1.0,6.0,41,0.00,,,0.00,Wunderground v.1.15,2014-01-25 18:06:00,
2014-01-25 12:11:00,55.5,32.2,30.22,WSW,240,5.0,5.0,41,0.00,,,0.00,Wunderground v.1.15,2014-01-25 18:11:00,
2014-01-25 12:16:00,56.0,30.7,30.22,South,173,2.0,5.0,38,0.00,,,0.00,Wunderground v.1.15,2014-01-25 18:16:00,
2014-01-25 12:21:00,56.1,32.1,30.22,West,270,0.0,4.0,40,0.00,,,0.00,Wunderground v.1.15,2014-01-25 18:21:00,
2014-01-25 12:26:00,56.5,32.4,30.22,West,269,1.0,4.0,40,0.00,,,0.00,Wunderground v.1.15,2014-01-25 18:26:00,
2014-01-25 12:31:00,57.1,31.7,30.21,WNW,288,2.0,3.0,38,0.00,,,0.00,Wunderground v.1.15,2014-01-25 18:31:00,
2014-01-25 12:36:00,56.9,32.8,30.21,WNW,285,2.0,8.0,40,0.00,,,0.00,Wunderground v.1.15,2014-01-25 18:36:00,
2014-01-25 12:41:00,57.1,31.0,30.20,South,181,0.0,3.0,37,0.00,,,0.00,Wunderground v.1.15,2014-01-25 18:41:00,
2014-01-25 12:46:00,57.8,33.6,30.20,WSW,243,2.0,3.0,40,0.00,,,0.00,Wunderground v.1.15,2014-01-25 18:46:00,
2014-01-25 12:51:00,58.4,32.2,30.19,North,360,0.0,3.0,37,0.00,,,0.00,Wunderground v.1.15,2014-01-25 18:51:00,
2014-01-25 12:56:00,58.4,32.2,30.19,NNW,328,3.0,5.0,37,0.00,,,0.00,Wunderground v.1.15,2014-01-25 18:56:00,
2014-01-25 13:02:00,58.3,32.1,30.19,NW,322,2.0,3.0,37,0.00,,,0.00,Wunderground v.1.15,2014-01-25 19:02:00,
2014-01-25 13:07:00,58.3,32.1,30.19,NNW,345,0.0,6.0,37,0.00,,,0.00,Wunderground v.1.15,2014-01-25 19:07:00,
2014-01-25 13:12:00,58.4,32.2,30.18,WSW,240,1.0,4.0,37,0.00,,,0.00,Wunderground v.1.15,2014-01-25 19:12:00,
2014-01-25 13:17:00,58.6,31.0,30.18,SW,222,2.0,4.0,35,0.00,,,0.00,Wunderground v.1.15,2014-01-25 19:17:00,
2014-01-25 13:22:00,58.9,32.0,30.18,SSW,204,1.0,5.0,36,0.00,,,0.00,Wunderground v.1.15,2014-01-25 19:22:00,
2014-01-25 13:27:00,59.2,32.2,30.17,NW,305,3.0,8.0,36,0.00,,,0.00,Wunderground v.1.15,2014-01-25 19:27:00,
2014-01-25 13:32:00,59.2,30.8,30.17,WNW,300,1.0,4.0,34,0.00,,,0.00,Wunderground v.1.15,2014-01-25 19:32:00,
2014-01-25 13:37:00,59.5,31.1,30.17,West,269,2.0,5.0,34,0.00,,,0.00,Wunderground v.1.15,2014-01-25 19:37:00,
2014-01-25 13:42:00,59.9,31.4,30.17,NE,53,0.0,5.0,34,0.00,,,0.00,Wunderground v.1.15,2014-01-25 19:42:00,
2014-01-25 13:47:00,60.4,32.6,30.17,North,352,1.0,5.0,35,0.00,,,0.00,Wunderground v.1.15,2014-01-25 19:47:00,
2014-01-25 13:52:00,60.7,32.1,30.17,West,281,0.0,4.0,34,0.00,,,0.00,Wunderground v.1.15,2014-01-25 19:52:00,
2014-01-25 13:57:00,61.1,31.0,30.17,SSW,201,2.0,6.0,32,0.00,,,0.00,Wunderground v.1.15,2014-01-25 19:57:00,
2014-01-25 14:02:00,61.5,31.3,30.16,SW,226,5.0,5.0,32,0.00,,,0.00,Wunderground v.1.15,2014-01-25 20:02:00,
2014-01-25 14:07:00,61.6,32.2,30.16,WNW,302,3.0,5.0,33,0.00,,,0.00,Wunderground v.1.15,2014-01-25 20:07:00,
2014-01-25 14:12:00,61.7,32.3,30.16,WSW,251,4.0,5.0,33,0.00,,,0.00,Wunderground v.1.15,2014-01-25 20:12:00,
2014-01-25 14:17:00,61.6,33.7,30.16,WSW,250,2.0,6.0,35,0.00,,,0.00,Wunderground v.1.15,2014-01-25 20:17:00,
2014-01-25 14:22:00,61.3,31.2,30.16,SSW,194,2.0,6.0,32,0.00,,,0.00,Wunderground v.1.15,2014-01-25 20:22:00,
2014-01-25 14:27:00,61.1,31.0,30.16,West,267,3.0,6.0,32,0.00,,,0.00,Wunderground v.1.15,2014-01-25 20:27:00,
2014-01-25 14:32:00,61.2,31.8,30.15,NW,308,4.0,6.0,33,0.00,,,0.00,Wunderground v.1.15,2014-01-25 20:32:00,
2014-01-25 14:37:00,61.2,31.1,30.15,NW,321,3.0,6.0,32,0.00,,,0.00,Wunderground v.1.15,2014-01-25 20:37:00,
2014-01-25 14:42:00,61.0,31.7,30.15,SW,232,4.0,4.0,33,0.00,,,0.00,Wunderground v.1.15,2014-01-25 20:42:00,
2014-01-25 14:47:00,60.8,31.5,30.15,SSW,202,0.0,4.0,33,0.00,,,0.00,Wunderground v.1.15,2014-01-25 20:47:00,
2014-01-25 14:52:00,61.4,33.5,30.15,West,268,3.0,5.0,35,0.00,,,0.00,Wunderground v.1.15,2014-01-25 20:52:00,
2014-01-25 14:57:00,61.6,32.2,30.15,West,277,5.0,5.0,33,0.00,,,0.00,Wunderground v.1.15,2014-01-25 20:57:00,
2014-01-25 15:02:00,61.7,32.3,30.15,WSW,255,2.0,4.0,33,0.00,,,0.00,Wunderground v.1.15,2014-01-25 21:02:00,
2014-01-25 15:07:00,61.8,31.6,30.15,SW,222,2.0,6.0,32,0.00,,,0.00,Wunderground v.1.15,2014-01-25 21:07:00,
2014-01-25 15:12:00,62.0,32.5,30.14,SE,145,2.0,4.0,33,0.00,,,0.00,Wunderground v.1.15,2014-01-25 21:12:00,
2014-01-25 15:17:00,62.1,31.9,30.14,West,269,5.0,6.0,32,0.00,,,0.00,Wunderground v.1.15,2014-01-25 21:17:00,
2014-01-25 15:22:00,62.0,33.3,30.14,NW,313,2.0,3.0,34,0.00,,,0.00,Wunderground v.1.15,2014-01-25 21:22:00,
2014-01-25 15:27:00,62.1,32.6,30.14,SSW,198,3.0,4.0,33,0.00,,,0.00,Wunderground v.1.15,2014-01-25 21:27:00,
2014-01-25 15:32:00,62.4,32.9,30.14,SSW,195,2.0,3.0,33,0.00,,,0.00,Wunderground v.1.15,2014-01-25 21:32:00,
2014-01-25 15:37:00,62.5,32.2,30.14,SW,226,2.0,3.0,32,0.00,,,0.00,Wunderground v.1.15,2014-01-25 21:37:00,
2014-01-25 15:42:00,62.3,32.0,30.14,WNW,283,2.0,3.0,32,0.00,,,0.00,Wunderground v.1.15,2014-01-25 21:42:00,
2014-01-25 15:47:00,62.0,32.5,30.15,West,277,1.0,6.0,33,0.00,,,0.00,Wunderground v.1.15,2014-01-25 21:47:00,
2014-01-25 15:52:00,61.8,33.1,30.14,WNW,283,3.0,4.0,34,0.00,,,0.00,Wunderground v.1.15,2014-01-25 21:52:00,
2014-01-25 15:57:00,61.6,32.2,30.14,SW,232,1.0,4.0,33,0.00,,,0.00,Wunderground v.1.15,2014-01-25 21:57:00,
2014-01-25 16:02:00,61.6,33.7,30.14,West,263,1.0,2.0,35,0.00,,,0.00,Wunderground v.1.15,2014-01-25 22:02:00,
2014-01-25 16:07:00,61.6,32.9,30.14,SSW,203,1.0,2.0,34,0.00,,,0.00,Wunderground v.1.15,2014-01-25 22:07:00,
2014-01-25 16:12:00,61.7,33.7,30.14,SSW,212,2.0,2.0,35,0.00,,,0.00,Wunderground v.1.15,2014-01-25 22:12:00,
2014-01-25 16:17:00,61.6,33.7,30.14,West,279,1.0,3.0,35,0.00,,,0.00,Wunderground v.1.15,2014-01-25 22:17:00,
2014-01-25 16:22:00,61.3,33.4,30.14,SW,234,1.0,3.0,35,0.00,,,0.00,Wunderground v.1.15,2014-01-25 22:22:00,
2014-01-25 16:27:00,61.1,33.9,30.14,West,280,0.0,3.0,36,0.00,,,0.00,Wunderground v.1.15,2014-01-25 22:27:00,
2014-01-25 16:32:00,60.9,33.7,30.14,WSW,257,0.0,1.0,36,0.00,,,0.00,Wunderground v.1.15,2014-01-25 22:32:00,
2014-01-25 16:37:00,60.8,35.7,30.14,West,262,0.0,2.0,39,0.00,,,0.00,Wunderground v.1.15,2014-01-25 22:37:00,
2014-01-25 16:42:00,60.5,35.4,30.14,West,269,0.0,1.0,39,0.00,,,0.00,Wunderground v.1.15,2014-01-25 22:42:00,
2014-01-25 16:47:00,60.3,35.9,30.14,West,271,0.0,1.0,40,0.00,,,0.00,Wunderground v.1.15,2014-01-25 22:47:00,
2014-01-25 16:52:00,59.9,36.1,30.14,West,271,0.0,1.0,41,0.00,,,0.00,Wunderground v.1.15,2014-01-25 22:52:00,
2014-01-25 16:57:00,59.7,38.3,30.14,West,271,0.0,1.0,45,0.00,,,0.00,Wunderground v.1.15,2014-01-25 22:57:00,
2014-01-25 17:02:00,59.2,40.6,30.14,West,271,0.0,0.0,50,0.00,,,0.00,Wunderground v.1.15,2014-01-25 23:02:00,
2014-01-25 17:07:00,58.5,41.4,30.14,West,271,0.0,0.0,53,0.00,,,0.00,Wunderground v.1.15,2014-01-25 23:07:00,
2014-01-25 17:12:00,57.9,41.8,30.14,West,271,0.0,0.0,55,0.00,,,0.00,Wunderground v.1.15,2014-01-25 23:12:00,
2014-01-25 17:17:00,57.2,42.1,30.15,West,271,0.0,0.0,57,0.00,,,0.00,Wunderground v.1.15,2014-01-25 23:17:00,
2014-01-25 17:22:00,56.3,41.3,30.14,West,271,0.0,0.0,57,0.00,,,0.00,Wunderground v.1.15,2014-01-25 23:22:00,
2014-01-25 17:27:00,55.5,41.4,30.14,West,271,0.0,0.0,59,0.00,,,0.00,Wunderground v.1.15,2014-01-25 23:27:00,
2014-01-25 17:32:00,54.8,42.0,30.15,West,271,0.0,0.0,62,0.00,,,0.00,Wunderground v.1.15,2014-01-25 23:32:00,
2014-01-25 17:37:00,53.9,41.2,30.15,West,271,0.0,0.0,62,0.00,,,0.00,Wunderground v.1.15,2014-01-25 23:37:00,
2014-01-25 17:43:00,53.0,40.3,30.15,West,271,0.0,0.0,62,0.00,,,0.00,Wunderground v.1.15,2014-01-25 23:43:00,
2014-01-25 17:48:00,52.1,39.9,30.15,West,271,0.0,0.0,63,0.00,,,0.00,Wunderground v.1.15,2014-01-25 23:48:00,
2014-01-25 17:53:00,51.1,39.3,30.15,West,271,0.0,0.0,64,0.00,,,0.00,Wunderground v.1.15,2014-01-25 23:53:00,
2014-01-25 17:58:00,50.1,38.4,30.15,West,271,0.0,0.0,64,0.00,,,0.00,Wunderground v.1.15,2014-01-25 23:58:00,
2014-01-25 18:03:00,49.1,37.0,30.15,West,271,0.0,0.0,63,0.00,,,0.00,Wunderground v.1.15,2014-01-26 00:03:00,
2014-01-25 18:08:00,48.4,37.2,30.15,West,268,0.0,0.0,65,0.00,,,0.00,Wunderground v.1.15,2014-01-26 00:08:00,
2014-01-25 18:13:00,47.6,37.2,30.15,SW,235,0.0,0.0,67,0.00,,,0.00,Wunderground v.1.15,2014-01-26 00:13:00,
2014-01-25 18:18:00,47.1,37.1,30.15,SW,235,0.0,0.0,68,0.00,,,0.00,Wunderground v.1.15,2014-01-26 00:18:00,
2014-01-25 18:23:00,46.7,36.7,30.15,SW,235,0.0,0.0,68,0.00,,,0.00,Wunderground v.1.15,2014-01-26 00:23:00,
2014-01-25 18:28:00,46.3,36.7,30.15,SW,235,0.0,0.0,69,0.00,,,0.00,Wunderground v.1.15,2014-01-26 00:28:00,
2014-01-25 18:33:00,45.9,35.6,30.15,SW,235,0.0,0.0,67,0.00,,,0.00,Wunderground v.1.15,2014-01-26 00:33:00,
2014-01-25 18:38:00,45.6,36.0,30.15,SW,234,0.0,0.0,69,0.00,,,0.00,Wunderground v.1.15,2014-01-26 00:38:00,
2014-01-25 18:43:00,45.3,36.1,30.15,SW,235,0.0,0.0,70,0.00,,,0.00,Wunderground v.1.15,2014-01-26 00:43:00,
2014-01-25 18:48:00,45.0,36.2,30.15,SW,234,0.0,0.0,71,0.00,,,0.00,Wunderground v.1.15,2014-01-26 00:48:00,
2014-01-25 18:53:00,44.7,36.2,30.15,SW,235,0.0,0.0,72,0.00,,,0.00,Wunderground v.1.15,2014-01-26 00:53:00,
2014-01-25 18:58:00,44.4,36.3,30.15,SW,235,0.0,0.0,73,0.00,,,0.00,Wunderground v.1.15,2014-01-26 00:58:00,
2014-01-25 19:03:00,44.3,36.5,30.15,SW,235,0.0,0.0,74,0.00,,,0.00,Wunderground v.1.15,2014-01-26 01:03:00,
2014-01-25 19:08:00,44.0,36.2,30.15,SW,235,0.0,0.0,74,0.00,,,0.00,Wunderground v.1.15,2014-01-26 01:08:00,
2014-01-25 19:13:00,43.7,36.0,30.15,SW,235,0.0,0.0,74,0.00,,,0.00,Wunderground v.1.15,2014-01-26 01:13:00,
2014-01-25 19:18:00,43.5,35.8,30.15,SW,234,0.0,0.0,74,0.00,,,0.00,Wunderground v.1.15,2014-01-26 01:18:00,
2014-01-25 19:23:00,43.2,35.8,30.15,SW,235,0.0,0.0,75,0.00,,,0.00,Wunderground v.1.15,2014-01-26 01:23:00,
2014-01-25 19:28:00,43.0,35.6,30.15,SW,235,0.0,0.0,75,0.00,,,0.00,Wunderground v.1.15,2014-01-26 01:28:00,
2014-01-25 19:33:00,42.9,35.5,30.14,SW,235,0.0,0.0,75,0.00,,,0.00,Wunderground v.1.15,2014-01-26 01:33:00,
2014-01-25 19:38:00,42.7,35.0,30.14,SW,235,0.0,0.0,74,0.00,,,0.00,Wunderground v.1.15,2014-01-26 01:38:00,
2014-01-25 19:43:00,42.5,35.1,30.14,SW,234,0.0,0.0,75,0.00,,,0.00,Wunderground v.1.15,2014-01-26 01:43:00,
2014-01-25 19:48:00,42.3,34.9,30.14,SW,235,0.0,0.0,75,0.00,,,0.00,Wunderground v.1.15,2014-01-26 01:48:00,
2014-01-25 19:53:00,42.0,35.0,30.14,SW,235,0.0,0.0,76,0.00,,,0.00,Wunderground v.1.15,2014-01-26 01:53:00,
2014-01-25 19:58:00,41.7,35.0,30.14,SW,235,0.0,0.0,77,0.00,,,0.00,Wunderground v.1.15,2014-01-26 01:58:00,
2014-01-25 20:03:00,41.4,34.7,30.14,SW,234,0.0,0.0,77,0.00,,,0.00,Wunderground v.1.15,2014-01-26 02:03:00,
2014-01-25 20:08:00,41.1,34.8,30.14,SW,235,0.0,0.0,78,0.00,,,0.00,Wunderground v.1.15,2014-01-26 02:08:00,
2014-01-25 20:13:00,40.8,34.5,30.14,SW,235,0.0,0.0,78,0.00,,,0.00,Wunderground v.1.15,2014-01-26 02:13:00,
2014-01-25 20:18:00,40.6,34.3,30.14,SW,235,0.0,0.0,78,0.00,,,0.00,Wunderground v.1.15,2014-01-26 02:18:00,
2014-01-25 20:23:00,40.3,34.6,30.14,SW,235,0.0,0.0,80,0.00,,,0.00,Wunderground v.1.15,2014-01-26 02:23:00,
2014-01-25 20:28:00,40.2,35.1,30.14,SW,235,0.0,0.0,82,0.00,,,0.00,Wunderground v.1.15,2014-01-26 02:28:00,
2014-01-25 20:33:00,40.1,35.4,30.14,SW,235,0.0,0.0,83,0.00,,,0.00,Wunderground v.1.15,2014-01-26 02:33:00,
2014-01-25 20:38:00,40.1,35.7,30.14,SW,234,0.0,0.0,84,0.00,,,0.00,Wunderground v.1.15,2014-01-26 02:38:00,
2014-01-25 20:43:00,40.0,35.3,30.14,SW,235,0.0,0.0,83,0.00,,,0.00,Wunderground v.1.15,2014-01-26 02:43:00,
2014-01-25 20:49:00,40.0,35.3,30.14,SW,235,0.0,0.0,83,0.00,,,0.00,Wunderground v.1.15,2014-01-26 02:49:00,
2014-01-25 20:54:00,40.0,35.6,30.14,SW,235,0.0,0.0,84,0.00,,,0.00,Wunderground v.1.15,2014-01-26 02:54:00,
2014-01-25 20:59:00,40.0,35.6,30.14,SW,235,0.0,0.0,84,0.00,,,0.00,Wunderground v.1.15,2014-01-26 02:59:00,
2014-01-25 21:04:00,40.0,35.3,30.14,SW,235,0.0,0.0,83,0.00,,,0.00,Wunderground v.1.15,2014-01-26 03:04:00,
2014-01-25 21:09:00,40.0,34.9,30.13,SW,235,0.0,0.0,82,0.00,,,0.00,Wunderground v.1.15,2014-01-26 03:09:00,
2014-01-25 21:14:00,40.0,34.9,30.14,SW,235,0.0,0.0,82,0.00,,,0.00,Wunderground v.1.15,2014-01-26 03:14:00,
2014-01-25 21:19:00,40.0,35.3,30.14,SW,234,0.0,0.0,83,0.00,,,0.00,Wunderground v.1.15,2014-01-26 03:19:00,
2014-01-25 21:24:00,40.0,35.6,30.13,SW,235,0.0,0.0,84,0.00,,,0.00,Wunderground v.1.15,2014-01-26 03:24:00,
2014-01-25 21:29:00,40.1,35.7,30.13,SW,235,0.0,0.0,84,0.00,,,0.00,Wunderground v.1.15,2014-01-26 03:29:00,
2014-01-25 21:34:00,40.2,35.4,30.13,SW,235,0.0,0.0,83,0.00,,,0.00,Wunderground v.1.15,2014-01-26 03:34:00,
2014-01-25 21:39:00,40.3,35.2,30.13,SW,234,0.0,0.0,82,0.00,,,0.00,Wunderground v.1.15,2014-01-26 03:39:00,
2014-01-25 21:44:00,40.5,35.4,30.13,East,91,0.0,0.0,82,0.00,,,0.00,Wunderground v.1.15,2014-01-26 03:44:00,
2014-01-25 21:49:00,40.7,35.6,30.13,East,90,0.0,0.0,82,0.00,,,0.00,Wunderground v.1.15,2014-01-26 03:49:00,
2014-01-25 21:54:00,41.1,35.7,30.13,SE,140,0.0,2.0,81,0.00,,,0.00,Wunderground v.1.15,2014-01-26 03:54:00,
2014-01-25 21:59:00,41.7,36.3,30.13,SE,131,0.0,2.0,81,0.00,,,0.00,Wunderground v.1.15,2014-01-26 03:59:00,
2014-01-25 22:04:00,41.9,36.2,30.13,SE,131,0.0,1.0,80,0.00,,,0.00,Wunderground v.1.15,2014-01-26 04:04:00,
2014-01-25 22:09:00,42.0,36.3,30.13,SE,131,0.0,1.0,80,0.00,,,0.00,Wunderground v.1.15,2014-01-26 04:09:00,
2014-01-25 22:14:00,42.0,36.3,30.12,SE,131,0.0,0.0,80,0.00,,,0.00,Wunderground v.1.15,2014-01-26 04:14:00,
2014-01-25 22:19:00,42.0,36.0,30.12,SE,131,0.0,0.0,79,0.00,,,0.00,Wunderground v.1.15,2014-01-26 04:19:00,
2014-01-25 22:24:00,42.2,35.8,30.12,SE,131,0.0,0.0,78,0.00,,,0.00,Wunderground v.1.15,2014-01-26 04:24:00,
2014-01-25 22:29:00,42.2,35.8,30.12,SE,131,0.0,0.0,78,0.00,,,0.00,Wunderground v.1.15,2014-01-26 04:29:00,
2014-01-25 22:34:00,42.3,35.6,30.12,SE,131,0.0,0.0,77,0.00,,,0.00,Wunderground v.1.15,2014-01-26 04:34:00,
2014-01-25 22:40:00,42.3,35.9,30.12,SE,131,0.0,0.0,78,0.00,,,0.00,Wunderground v.1.15,2014-01-26 04:40:00,
2014-01-25 22:45:00,42.4,36.0,30.12,SE,132,0.0,0.0,78,0.00,,,0.00,Wunderground v.1.15,2014-01-26 04:45:00,
2014-01-25 22:50:00,42.4,37.0,30.12,SE,132,0.0,0.0,81,0.00,,,0.00,Wunderground v.1.15,2014-01-26 04:50:00,
2014-01-25 22:55:00,42.5,36.8,30.12,SSE,147,0.0,1.0,80,0.00,,,0.00,Wunderground v.1.15,2014-01-26 04:55:00,
2014-01-25 23:00:00,42.7,36.6,30.12,NNE,30,1.0,1.0,79,0.00,,,0.00,Wunderground v.1.15,2014-01-26 05:00:00,
2014-01-25 23:01:00,42.7,36.6,30.12,NNE,30,0.0,1.0,79,0.00,,,0.00,Wunderground v.1.15,2014-01-26 05:01:00,
2014-01-25 23:06:00,43.0,36.6,30.12,NNE,30,0.0,1.0,78,0.00,,,0.00,Wunderground v.1.15,2014-01-26 05:06:00,
2014-01-25 23:11:00,43.3,36.6,30.12,ESE,112,0.0,1.0,77,0.00,,,0.00,Wunderground v.1.15,2014-01-26 05:11:00,
2014-01-25 23:16:00,43.4,36.3,30.11,ESE,112,0.0,1.0,76,0.00,,,0.00,Wunderground v.1.15,2014-01-26 05:16:00,
2014-01-25 23:21:00,43.7,36.6,30.11,SE,140,0.0,0.0,76,0.00,,,0.00,Wunderground v.1.15,2014-01-26 05:21:00,
2014-01-25 23:26:00,43.9,36.8,30.11,ESE,114,0.0,1.0,76,0.00,,,0.00,Wunderground v.1.15,2014-01-26 05:26:00,
2014-01-25 23:31:00,43.9,36.8,30.11,SE,140,0.0,1.0,76,0.00,,,0.00,Wunderground v.1.15,2014-01-26 05:31:00,
2014-01-25 23:36:00,43.9,36.5,30.11,SW,221,0.0,1.0,75,0.00,,,0.00,Wunderground v.1.15,2014-01-26 05:36:00,
2014-01-25 23:41:00,44.1,36.7,30.10,SW,228,0.0,0.0,75,0.00,,,0.00,Wunderground v.1.15,2014-01-26 05:41:00,
2014-01-25 23:46:00,44.1,37.0,30.10,SW,228,0.0,0.0,76,0.00,,,0.00,Wunderground v.1.15,2014-01-26 05:46:00,
2014-01-25 23:51:00,44.0,36.6,30.10,ESE,105,0.0,1.0,75,0.00,,,0.00,Wunderground v.1.15,2014-01-26 05:51:00,
2014-01-25 23:57:00,44.2,37.1,30.10,ESE,106,0.0,1.0,76,0.00,,,0.00,Wunderground v.1.15,2014-01-26 05:57:00,